SAS39G LIRQ-EKCH

Flight info

Callsign SAS39G
Flight time N/A
Altitude 18000
Route OKMAP Q125 OMAKU/N0455F360 DCT BOA DCT LUMAV DCT GIKEB DCT BRENO DCT KONIN DCT EXITI DCT EMBOX/N0449F370 DCT NOBRI/N0450F380 M726 ROSOK Q296 MONAK
Aircraft A319/M-SDE3FGHIRWY/LB1

Departure

Time 2026-04-22 17:03
Airport Florence Airport, Peretola (LIRQ)

Arrival

Time N/A
Airport Copenhagen Kastrup Airport (EKCH)
Time Latitude Longitude Altitude Speed Heading
2026-04-22 15:28 43.80324 11.20087 138 ft 0 kts 129°
2026-04-22 16:55 43.80330 11.20076 137 ft 2 kts 129°
2026-04-22 16:55 43.80339 11.20062 137 ft 2 kts 129°
2026-04-22 16:55 43.80345 11.20052 137 ft 2 kts 128°
2026-04-22 16:55 43.80352 11.20033 137 ft 2 kts 109°
2026-04-22 16:56 43.80356 11.20013 137 ft 2 kts 94°
2026-04-22 16:56 43.80356 11.19992 137 ft 1 kts 80°
2026-04-22 16:56 43.80354 11.19983 137 ft 1 kts 74°
2026-04-22 16:56 43.80353 11.19980 137 ft 0 kts 76°
2026-04-22 16:58 43.80354 11.19982 137 ft 0 kts 76°
2026-04-22 16:59 43.80368 11.20021 137 ft 9 kts 41°
2026-04-22 16:59 43.80461 11.20046 137 ft 14 kts
2026-04-22 16:59 43.80549 11.19994 137 ft 14 kts
2026-04-22 16:59 43.80648 11.20024 137 ft 14 kts 14°
2026-04-22 17:00 43.80736 11.20094 138 ft 15 kts 45°
2026-04-22 17:00 43.80877 11.20313 140 ft 16 kts 48°
2026-04-22 17:00 43.80953 11.20433 141 ft 16 kts 49°
2026-04-22 17:01 43.81025 11.20541 142 ft 15 kts 46°
2026-04-22 17:01 43.81113 11.20679 143 ft 29 kts 49°
2026-04-22 17:01 43.81267 11.20922 147 ft 32 kts 49°
2026-04-22 17:01 43.81412 11.21145 149 ft 28 kts 47°
2026-04-22 17:02 43.81509 11.21320 150 ft 7 kts 61°
2026-04-22 17:02 43.81512 11.21294 150 ft 6 kts 236°
2026-04-22 17:02 43.81500 11.21273 150 ft 0 kts 226°
2026-04-22 17:03 43.81441 11.21182 150 ft 46 kts 230°
2026-04-22 17:03 43.81039 11.20561 143 ft 123 kts 228°
2026-04-22 17:03 43.80371 11.19519 470 ft 147 kts 228°
2026-04-22 17:03 43.79759 11.18504 1168 ft 139 kts 239°
2026-04-22 17:04 43.79513 11.17197 1587 ft 147 kts 288°
2026-04-22 17:04 43.80014 11.16030 2130 ft 143 kts 318°
2026-04-22 17:04 43.80557 11.14810 2456 ft 164 kts 287°
2026-04-22 17:04 43.80630 11.13155 2794 ft 182 kts 274°
2026-04-22 17:05 43.80628 11.11315 3108 ft 201 kts 276°
2026-04-22 17:05 43.80706 11.09329 3495 ft 217 kts 279°
2026-04-22 17:05 43.80875 11.07158 3919 ft 233 kts 282°
2026-04-22 17:05 43.81098 11.04887 4551 ft 242 kts 283°
2026-04-22 17:06 43.81461 11.02628 5414 ft 235 kts 303°
2026-04-22 17:06 43.82505 11.01075 6169 ft 221 kts 339°
2026-04-22 17:06 43.83931 11.00601 6907 ft 214 kts
2026-04-22 17:06 43.85385 11.01154 7461 ft 223 kts 25°
2026-04-22 17:07 43.86869 11.02067 7906 ft 241 kts 25°
2026-04-22 17:07 43.88462 11.03039 8422 ft 256 kts 24°
2026-04-22 17:07 43.90113 11.04043 9154 ft 261 kts 24°
2026-04-22 17:07 43.91777 11.05055 9898 ft 264 kts 23°
2026-04-22 17:08 43.93452 11.06072 10575 ft 270 kts 23°
2026-04-22 17:08 43.95238 11.07154 10969 ft 286 kts 23°
2026-04-22 17:08 43.97115 11.08293 11308 ft 303 kts 23°
2026-04-22 17:08 43.99087 11.09493 11612 ft 318 kts 23°
2026-04-22 17:09 44.01148 11.10756 12129 ft 326 kts 23°
2026-04-22 17:09 44.03238 11.12062 12803 ft 329 kts 23°
2026-04-22 17:09 44.05337 11.13380 13480 ft 332 kts 22°
2026-04-22 17:09 44.07451 11.14705 14108 ft 336 kts 22°
2026-04-22 17:10 44.09589 11.16045 14726 ft 339 kts 22°
2026-04-22 17:10 44.11758 11.17404 15356 ft 342 kts 22°
2026-04-22 17:10 44.13933 11.18768 15993 ft 344 kts 22°
2026-04-22 17:10 44.16060 11.20102 16573 ft 347 kts 22°
2026-04-22 17:11 44.18253 11.21481 17145 ft 350 kts 21°
2026-04-22 17:11 44.20523 11.22908 17746 ft 352 kts 21°
2026-04-22 17:11 44.22758 11.24312 18318 ft 354 kts 21°
2026-04-22 17:11 44.24998 11.25723 18847 ft 357 kts 21°
2026-04-22 17:12 44.27262 11.27155 19342 ft 360 kts 20°
2026-04-22 17:12 44.29568 11.28612 19852 ft 363 kts 20°
2026-04-22 17:12 44.31888 11.30078 20343 ft 365 kts 19°
2026-04-22 17:12 44.34210 11.31544 20863 ft 367 kts 19°
2026-04-22 17:13 44.36521 11.33006 21337 ft 369 kts 18°
2026-04-22 17:13 44.38893 11.34504 21818 ft 372 kts 18°
2026-04-22 17:13 44.41253 11.35996 22269 ft 374 kts 18°
2026-04-22 17:13 44.43624 11.37499 22706 ft 377 kts 18°
2026-04-22 17:14 44.46024 11.39021 23165 ft 379 kts 17°
2026-04-22 17:14 44.48422 11.40545 23578 ft 382 kts 17°
2026-04-22 17:14 44.50854 11.42090 23971 ft 384 kts 17°
2026-04-22 17:14 44.53289 11.43638 24396 ft 386 kts 17°
2026-04-22 17:15 44.54909 11.44669 24669 ft 388 kts 17°
2026-04-22 17:15 44.58208 11.46772 25159 ft 391 kts 16°
2026-04-22 17:15 44.60677 11.48342 25539 ft 394 kts 17°
2026-04-22 17:15 44.63205 11.49953 25913 ft 396 kts 17°
2026-04-22 17:16 44.65706 11.51552 26280 ft 398 kts 17°
2026-04-22 17:16 44.68232 11.53169 26597 ft 401 kts 17°
2026-04-22 17:16 44.70795 11.54814 26934 ft 403 kts 17°
2026-04-22 17:16 44.73336 11.56444 27263 ft 406 kts 17°
2026-04-22 17:17 44.75944 11.58115 27622 ft 407 kts 17°
2026-04-22 17:17 44.78565 11.59703 27897 ft 406 kts 12°
2026-04-22 17:17 44.81235 11.60828 28208 ft 402 kts
2026-04-22 17:17 44.83971 11.61479 28529 ft 398 kts 359°
2026-04-22 17:18 44.86721 11.61682 28794 ft 396 kts 354°
2026-04-22 17:18 44.89482 11.61718 29079 ft 398 kts 353°
2026-04-22 17:18 44.92255 11.61726 29385 ft 399 kts 353°
2026-04-22 17:18 44.95042 11.61732 29745 ft 399 kts 353°
2026-04-22 17:19 45.00561 11.61750 30586 ft 394 kts 353°
2026-04-22 17:19 45.06032 11.61762 31257 ft 393 kts 353°
2026-04-22 17:20 45.11497 11.61769 31913 ft 393 kts 353°
2026-04-22 17:20 45.16937 11.61783 32548 ft 392 kts 354°
2026-04-22 17:21 45.19680 11.61790 32879 ft 392 kts 354°
2026-04-22 17:21 45.25124 11.61807 33484 ft 391 kts 354°
2026-04-22 17:22 45.30564 11.61826 34037 ft 391 kts 355°
2026-04-22 17:22 45.33276 11.61834 34325 ft 390 kts 355°
2026-04-22 17:22 45.38694 11.61850 34731 ft 390 kts 355°
2026-04-22 17:23 45.41420 11.61858 34881 ft 391 kts 355°
2026-04-22 17:23 45.46867 11.61875 35188 ft 392 kts 355°